Date,TemperatureHighF,TemperatureAvgF,TemperatureLowF,DewpointHighF,DewpointAvgF,DewpointLowF,HumidityHigh,HumidityAvg,HumidityLow,PressureMaxIn,PressureMinIn,WindSpeedMaxMPH,WindSpeedAvgMPH,GustSpeedMaxMPH,PrecipitationSumIn
2013-1-1,26,20,14,15,9,4,91,64,43,0.00,40.00,11,7,30,0.00
2013-1-2,42,27,13,14,7,1,76,46,25,0.00,40.00,12,4,26,0.00
2013-1-3,44,25,15,26,16,8,88,68,39,0.00,40.00,5,2,31,0.00
2013-1-4,47,28,19,29,20,13,86,72,35,0.00,40.00,4,2,7,0.00
2013-1-5,47,32,21,32,22,16,86,69,34,0.00,40.00,7,2,15,0.00
2013-1-6,33,29,26,27,21,10,94,72,39,0.00,40.00,8,3,22,0.00
2013-1-7,43,32,20,31,24,17,90,73,50,0.00,40.00,7,3,19,0.00
2013-1-8,44,32,25,35,28,23,96,86,63,0.00,40.00,5,2,7,0.00
2013-1-9,50,35,22,31,24,18,97,68,31,0.00,40.00,11,5,32,0.00
2013-1-10,23,20,18,20,10,5,93,66,49,0.00,40.00,11,6,26,0.00
2013-1-11,24,19,14,15,8,2,88,63,45,0.00,40.00,11,7,25,0.00
2013-1-12,26,14,1,12,2,-7,87,62,25,0.00,40.00,9,4,20,0.00
2013-1-13,12,6,1,2,-3,-8,74,66,53,0.00,40.00,6,2,11,0.00
2013-1-14,30,27,21,19,6,-8,65,43,27,0.00,40.00,9,6,22,0.00
2013-1-15,44,34,20,23,17,14,84,54,31,0.00,40.00,10,5,28,0.00
2013-1-16,42,35,26,18,12,5,64,40,23,0.00,40.00,11,5,25,0.00
2013-1-17,44,31,20,14,8,-1,64,41,15,0.00,40.00,8,3,24,0.00
2013-1-18,43,28,16,20,11,5,67,50,22,0.00,40.00,6,2,16,0.00
2013-1-19,39,25,17,25,9,-1,72,53,19,0.00,40.00,5,2,13,0.00
2013-1-20,45,28,15,24,10,2,70,49,17,0.00,40.00,9,3,20,0.00
2013-1-21,47,31,22,25,15,9,70,53,23,0.00,40.00,5,2,8,0.00
2013-1-22,45,32,22,30,21,15,79,64,43,0.00,40.00,4,2,7,0.00
2013-1-23,50,40,32,28,16,1,76,43,14,0.00,40.00,9,3,22,0.00
2013-1-24,39,35,33,37,32,-100,98,95,79,0.00,40.00,3,1,6,0.00
2013-1-25,46,37,32,40,35,32,98,92,70,0.00,40.00,4,2,13,0.00
2013-1-26,44,36,30,34,27,20,98,73,42,0.00,40.00,11,5,27,0.00
2013-1-27,32,25,20,24,16,9,92,69,46,0.00,40.00,8,4,18,0.00
2013-1-28,31,23,12,23,15,9,90,70,53,0.00,40.00,7,3,14,0.00
2013-1-29,45,37,31,29,25,19,71,63,50,0.00,40.00,9,5,24,0.00
2013-1-30,50,37,27,31,24,8,91,63,19,0.00,40.00,6,3,16,0.00
2013-1-31,48,35,24,33,24,18,89,65,43,0.00,40.00,4,2,7,0.00
2013-2-1,48,33,23,26,18,13,73,54,30,0.00,40.00,5,2,16,0.00
2013-2-2,41,32,27,29,24,22,85,73,54,0.00,40.00,4,2,7,0.00
2013-2-3,48,33,24,30,22,16,92,68,28,0.00,40.00,6,2,13,0.00
2013-2-4,47,34,24,31,24,19,83,69,38,0.00,40.00,5,2,7,0.00
2013-2-5,49,38,30,27,19,6,79,48,20,0.00,40.00,10,5,24,0.00
2013-2-6,44,30,19,21,14,5,68,51,27,0.00,40.00,4,2,8,0.00
2013-2-7,36,30,22,27,9,-11,94,47,15,0.00,40.00,8,5,21,0.00
2013-2-8,28,22,16,15,13,9,85,69,46,0.00,40.00,5,3,14,0.00
2013-2-9,32,23,13,18,11,8,86,63,36,0.00,40.00,6,3,15,0.00
2013-2-10,32,27,22,17,14,11,74,58,45,0.00,40.00,7,4,24,0.00
2013-2-11,37,28,20,13,9,5,64,47,29,0.00,40.00,7,4,20,0.00
2013-2-12,45,34,21,24,17,13,76,52,32,0.00,40.00,6,3,14,0.00
2013-2-13,45,35,24,22,20,17,80,55,36,0.00,40.00,6,2,13,0.00
2013-2-14,45,38,31,26,23,21,67,55,44,0.00,40.00,10,5,26,0.00
2013-2-15,51,38,30,27,23,20,74,57,30,0.00,40.00,5,3,15,0.00
2013-2-16,47,32,24,26,22,17,81,65,35,0.00,40.00,3,2,6,0.00
2013-2-17,48,35,26,22,15,8,74,48,20,0.00,40.00,5,3,11,0.00
2013-2-18,45,33,24,21,18,13,81,56,28,0.00,40.00,10,4,22,0.00
2013-2-19,33,26,22,27,19,9,94,72,42,0.00,40.00,12,6,28,0.00
2013-2-20,34,27,21,20,14,7,90,61,33,0.00,40.00,6,3,14,0.00
2013-2-21,35,28,21,19,14,6,91,58,30,0.00,40.00,9,4,19,0.00
2013-2-22,44,32,20,25,16,6,86,55,21,0.00,40.00,8,3,21,0.00
2013-2-23,37,30,22,25,14,2,78,52,32,0.00,40.00,15,8,35,0.00
2013-2-24,38,27,20,13,8,-1,66,46,20,0.00,40.00,12,6,30,0.00
2013-2-25,46,32,21,25,14,0,80,52,15,0.00,40.00,12,5,25,0.00
2013-2-26,39,30,23,19,6,-10,82,41,12,0.00,40.00,8,4,21,0.00
2013-2-27,46,32,19,19,11,4,67,44,19,0.00,40.00,9,3,17,0.00
2013-2-28,52,37,27,30,24,16,83,59,37,0.00,40.00,7,2,12,0.00
2013-3-1,54,38,28,35,28,23,93,68,31,0.00,40.00,6,2,9,0.00
2013-3-2,56,41,30,32,25,18,85,57,24,0.00,40.00,8,3,18,0.00
2013-3-3,43,37,31,34,32,25,97,84,51,0.00,40.00,6,2,15,0.00
2013-3-4,49,35,25,33,28,24,97,79,40,0.00,40.00,5,2,9,0.00
2013-3-5,47,38,29,27,24,15,89,60,36,0.00,40.00,16,6,36,0.00
2013-3-6,37,28,19,31,22,15,97,80,55,0.00,40.00,13,6,37,0.00
2013-3-7,32,27,20,28,23,17,95,82,68,0.00,40.00,7,3,20,0.00
2013-3-8,38,30,23,28,23,21,91,76,50,0.00,40.00,6,2,13,0.00
2013-3-9,43,33,23,27,15,2,92,54,18,0.00,40.00,8,4,20,0.00
2013-3-10,51,38,24,22,12,5,59,36,16,0.00,40.00,7,3,16,0.00
2013-3-11,55,38,26,26,18,12,68,48,18,0.00,40.00,6,2,11,0.00
2013-3-12,58,41,28,36,25,11,77,55,16,0.00,40.00,4,2,8,0.00
2013-3-13,62,44,31,39,32,24,92,67,23,0.00,40.00,4,2,8,0.00
2013-3-14,64,47,36,35,28,20,71,51,19,0.00,40.00,9,4,21,0.00
2013-3-15,58,43,31,38,27,19,79,57,22,0.00,40.00,8,3,16,0.00
2013-3-16,54,41,28,27,22,12,78,52,19,0.00,40.00,10,4,19,0.00
2013-3-17,52,41,26,27,18,1,79,45,14,0.00,40.00,9,3,16,0.00
2013-3-18,51,40,27,31,18,9,63,44,18,0.00,40.00,9,4,20,0.00
2013-3-19,51,43,38,34,28,14,85,56,31,0.00,40.00,9,5,22,0.00
2013-3-20,43,39,34,36,33,29,94,82,66,0.00,40.00,13,7,32,0.00
2013-3-21,47,38,27,30,23,9,82,57,23,0.00,40.00,11,5,29,0.00
2013-3-22,46,33,22,24,8,-13,83,45,9,0.00,40.00,7,3,17,0.00
2013-3-23,51,37,25,23,12,1,68,37,14,0.00,40.00,11,5,20,0.00
2013-3-24,54,40,27,29,23,18,86,55,24,0.00,40.00,10,3,15,0.00
2013-3-25,55,40,27,30,18,7,64,43,18,0.00,40.00,10,4,21,0.00
2013-3-26,48,43,38,34,26,8,82,52,24,0.00,40.00,10,5,23,0.00
2013-3-27,51,40,30,37,30,24,91,70,35,0.00,40.00,10,4,21,0.00
2013-3-28,50,40,33,37,32,26,96,75,40,0.00,40.00,10,3,21,0.00
2013-3-29,53,39,30,39,33,26,98,82,35,0.00,40.00,4,1,10,0.00
2013-3-30,59,44,31,38,32,-100,95,69,30,0.00,40.00,7,2,19,0.00
2013-3-31,44,40,32,38,33,27,94,78,51,0.00,40.00,10,4,20,0.00
2013-4-1,44,38,32,33,31,28,93,76,58,0.00,40.00,10,4,16,0.00
2013-4-2,33,30,29,30,28,27,95,93,88,0.00,40.00,3,1,49,0.00
2013-4-4,50,44,39,37,35,32,89,73,53,0.00,40.00,10,6,26,0.00
2013-4-5,50,43,36,35,27,18,87,56,33,0.00,40.00,11,6,24,0.00
2013-4-6,51,43,37,32,26,16,66,51,38,0.00,40.00,10,6,22,0.00
2013-4-7,53,44,31,31,26,22,90,51,30,0.00,40.00,14,9,35,0.00
2013-4-8,38,32,29,29,22,14,97,70,42,0.00,40.00,9,6,25,0.00
2013-4-9,46,35,27,20,14,6,66,45,19,0.00,40.00,10,6,26,0.00
2013-4-10,62,49,35,34,24,15,59,38,26,0.00,40.00,9,4,17,0.00
2013-4-11,55,48,42,37,32,20,80,55,32,0.00,40.00,9,5,20,0.00
2013-4-12,58,45,32,38,27,21,73,51,29,0.00,40.00,7,3,17,0.00
2013-4-13,57,51,42,34,28,18,69,42,29,0.00,40.00,13,8,24,0.00
2013-4-14,53,45,37,33,28,23,73,52,34,0.00,40.00,15,8,29,0.00
2013-4-15,40,34,26,29,24,16,96,66,38,0.00,40.00,13,7,32,0.00
2013-4-16,32,28,25,25,18,10,95,67,41,0.00,40.00,8,3,18,0.00
2013-4-17,38,27,20,22,15,10,90,63,33,0.00,40.00,7,4,18,0.00
2013-4-18,50,47,45,16,15,13,31,27,23,0.00,40.00,7,5,12,0.00
2013-4-19,34,32,29,20,20,20,69,62,55,0.00,40.00,3,2,5,0.00
2013-4-22,64,56,43,36,20,11,64,26,15,0.00,40.00,9,5,28,0.00
2013-4-23,58,44,34,30,12,4,56,27,18,0.00,40.00,10,6,33,0.00
2013-4-24,57,49,40,9,3,-3,22,15,12,0.00,40.00,10,6,28,0.00
2013-4-25,61,46,30,29,19,7,56,35,18,0.00,40.00,7,3,15,0.00
2013-4-26,66,49,33,36,27,7,76,49,10,0.00,40.00,8,2,13,0.00
2013-4-27,68,52,37,39,34,26,85,55,22,0.00,40.00,9,3,14,0.00
2013-4-28,69,51,34,38,30,18,77,50,15,0.00,40.00,7,2,114,0.00
2013-4-29,68,52,38,41,35,31,76,57,26,0.00,40.00,9,3,20,0.00
2013-4-30,63,54,43,35,23,-7,68,34,11,0.00,40.00,9,5,28,0.00
2013-5-1,58,45,36,3,-2,-10,19,13,9,0.00,40.00,13,7,32,0.00
2013-5-2,67,52,41,30,12,-5,56,22,12,0.00,40.00,9,4,22,0.00
2013-5-3,68,51,37,38,26,10,75,44,12,0.00,40.00,7,3,17,0.00
2013-5-4,60,51,44,32,22,14,48,33,22,0.00,40.00,10,4,23,0.00
2013-5-5,55,46,40,41,35,27,86,66,44,0.00,40.00,9,4,23,0.00
2013-5-6,44,39,33,39,36,32,97,89,78,0.00,40.00,5,2,11,0.00
2013-5-7,45,39,34,40,36,33,96,88,68,0.00,40.00,8,2,15,0.00
2013-5-8,55,45,39,41,38,33,96,79,44,0.00,40.00,8,2,14,0.00
2013-5-9,62,49,36,45,39,32,96,71,32,0.00,40.00,6,3,16,0.00
2013-5-10,69,53,38,44,36,-100,93,60,25,0.00,40.00,8,3,16,0.00
2013-5-11,71,55,41,52,40,-100,91,63,25,0.00,40.00,6,3,12,0.00
2013-5-12,72,56,41,42,38,30,81,53,22,0.00,40.00,9,3,17,0.00
2013-5-13,72,58,44,41,32,27,67,42,20,0.00,40.00,10,4,28,0.00
2013-5-14,67,54,41,44,36,31,79,53,27,0.00,40.00,8,3,15,0.00
2013-5-15,65,53,38,41,28,12,85,47,14,0.00,40.00,12,5,26,0.00
2013-5-16,51,42,39,37,17,-100,78,63,43,0.00,40.00,10,5,23,0.00
2013-5-17,55,46,35,34,26,-100,85,56,31,0.00,40.00,10,5,24,0.00
2013-5-18,59,46,30,34,28,16,86,54,23,0.00,40.00,13,5,49,0.00
2013-5-19,62,49,36,33,28,16,86,50,23,0.00,40.00,10,4,21,0.00
2013-5-20,66,53,44,34,24,18,62,33,18,0.00,40.00,8,4,21,0.00
2013-5-21,62,53,41,34,24,10,68,35,15,0.00,40.00,13,7,33,0.00
2013-5-22,51,46,32,22,14,5,62,28,18,0.00,40.00,11,7,26,0.00
2013-5-23,50,40,28,25,18,8,73,46,21,0.00,40.00,12,6,26,0.00
2013-5-24,62,45,28,31,24,8,85,48,13,0.00,40.00,10,4,24,0.00
2013-5-25,59,48,33,34,25,9,69,43,18,0.00,40.00,10,5,22,0.00
2013-5-26,58,48,35,35,28,23,72,48,30,0.00,40.00,10,5,26,0.00
2013-5-27,54,44,32,41,31,18,83,62,27,0.00,40.00,9,5,24,0.00
2013-5-28,56,49,43,41,37,32,91,66,41,0.00,40.00,12,7,21,0.00
2013-5-29,59,51,43,42,34,23,84,54,33,0.00,40.00,12,7,23,0.00
2013-5-30,64,50,34,37,30,11,95,55,13,0.00,40.00,12,4,21,0.00
2013-7-30,76,70,61,43,40,37,47,34,25,0.00,40.00,8,-84,17,0.00
2013-7-31,74,65,52,42,38,33,60,38,24,0.00,40.00,9,-31,22,0.00
2013-8-1,70,61,48,36,25,14,60,27,12,0.00,40.00,10,-36,26,0.00
2013-8-2,73,57,39,37,26,16,53,34,13,0.00,40.00,11,-4,21,0.00
2013-8-3,75,60,44,42,36,27,68,44,19,0.00,40.00,10,4,17,0.00
2013-8-4,77,62,45,45,37,28,72,43,17,0.00,40.00,10,-4,17,0.00
2013-8-5,77,61,46,42,34,22,62,41,13,0.00,40.00,10,-6,19,0.00
2013-8-6,78,62,46,41,36,23,67,42,13,0.00,40.00,11,-5,17,0.00
2013-8-7,70,63,55,42,36,30,56,38,23,0.00,40.00,11,-3,20,0.00
2013-8-8,70,58,46,41,37,28,68,48,26,0.00,40.00,9,-14,17,0.00
2013-8-9,70,59,47,42,36,28,66,45,21,0.00,40.00,9,-4,26,0.00
2013-8-10,69,57,43,41,31,23,59,40,19,0.00,40.00,9,4,22,0.00
2013-8-11,72,58,43,42,34,27,64,44,20,0.00,40.00,11,4,18,0.00
2013-8-12,74,58,43,40,35,29,72,47,20,0.00,40.00,9,-6,18,0.00
2013-8-13,77,59,44,40,30,-100,57,38,14,0.00,40.00,7,3,16,0.00
2013-8-14,80,61,45,43,32,21,58,38,12,0.00,40.00,8,3,15,0.00
2013-8-15,78,56,46,40,16,-100,59,32,12,0.00,40.00,9,4,19,0.00
2013-8-16,77,61,48,39,23,-100,42,26,13,0.00,40.00,9,4,18,0.00
2013-8-17,80,64,50,48,36,-100,58,39,21,0.00,40.00,10,3,18,0.00
2013-8-18,84,67,50,49,38,30,63,38,15,0.00,40.00,9,3,18,0.00
2013-8-19,75,64,59,53,36,-100,59,45,27,0.00,40.00,8,2,54,0.00
2013-8-20,80,65,55,56,43,-100,89,50,22,0.00,40.00,10,4,20,0.00
2013-8-21,70,64,56,57,49,42,86,60,42,0.00,40.00,6,3,16,0.00
2013-8-22,74,63,50,51,40,29,89,50,20,0.00,40.00,9,3,22,0.00
2013-8-23,72,59,45,40,36,30,65,45,21,0.00,40.00,8,4,20,0.00
2013-8-24,71,57,44,39,33,26,65,43,20,0.00,40.00,9,4,19,0.00
2013-8-25,69,57,45,41,37,32,69,48,30,0.00,40.00,8,-6,22,0.00
2013-8-26,73,58,45,42,36,31,70,47,22,0.00,40.00,8,4,20,0.00
2013-8-27,70,53,45,46,36,31,66,54,32,0.00,40.00,4,2,7,0.00
2013-8-28,73,67,56,50,45,41,60,46,35,0.00,40.00,7,4,15,0.00
2013-8-29,75,63,49,43,38,32,71,45,21,0.00,40.00,8,-37,17,0.00
2013-8-30,58,51,49,41,35,33,60,54,52,0.00,40.00,5,2,7,0.00
2013-9-3,73,67,57,48,47,45,64,49,41,0.00,40.00,9,-44,17,0.00
2013-9-4,76,64,51,47,44,42,75,52,30,0.00,40.00,7,3,15,0.00
2013-9-5,73,63,50,44,38,31,69,43,24,0.00,40.00,11,5,27,0.00
2013-9-6,75,62,49,43,38,32,64,44,22,0.00,40.00,7,3,16,0.00
2013-9-7,76,61,47,49,34,-100,60,41,19,0.00,40.00,9,-8,18,0.00
2013-9-8,77,60,45,43,35,28,70,42,17,0.00,40.00,11,3,22,0.00
2013-9-9,78,62,46,43,33,26,62,38,15,0.00,40.00,8,3,16,0.00
2013-9-10,77,62,50,41,31,24,51,33,14,0.00,40.00,8,-12,15,0.00
2013-9-11,75,61,49,47,38,30,65,45,20,0.00,40.00,9,3,16,0.00
2013-9-12,73,60,49,54,42,36,95,54,29,0.00,40.00,9,3,19,0.00
2013-9-13,74,59,47,55,50,42,96,74,34,0.00,40.00,4,2,9,0.00
2013-9-14,76,60,47,54,44,-100,88,60,30,0.00,40.00,7,2,12,0.00
2013-9-15,76,61,49,44,38,30,73,47,20,0.00,40.00,8,-13,23,0.00
2013-9-16,75,64,49,41,35,30,62,36,22,0.00,40.00,10,4,24,0.00
2013-9-17,64,56,41,39,32,22,60,41,21,0.00,40.00,11,6,29,0.00
2013-9-18,57,44,37,31,26,23,67,51,29,0.00,40.00,5,3,15,0.00
2013-9-19,73,62,48,39,27,21,42,27,14,0.00,40.00,7,4,19,0.00
2013-9-20,70,56,43,32,26,21,47,33,16,0.00,40.00,10,5,27,0.00
2013-9-21,55,46,37,43,32,-100,91,63,29,0.00,40.00,13,6,35,0.00
2013-9-22,57,44,35,38,34,28,93,68,36,0.00,40.00,10,3,17,0.00
2013-9-23,68,48,35,41,34,19,95,66,16,0.00,40.00,8,2,13,0.00
2013-9-24,63,55,44,36,25,8,58,31,16,0.00,40.00,12,7,32,0.00
2013-9-25,48,42,33,31,26,19,79,53,32,0.00,40.00,10,6,20,0.00
2013-9-26,47,38,31,26,24,17,75,58,36,0.00,40.00,7,-8,18,0.00
2013-9-27,56,46,34,29,23,18,68,43,23,0.00,40.00,7,3,13,0.00
2013-9-28,64,50,35,31,24,-100,66,41,26,0.00,40.00,9,4,22,0.00
2013-9-29,60,55,50,31,27,19,41,34,26,0.00,40.00,13,9,34,0.00
2013-9-30,62,54,50,37,30,21,52,40,27,0.00,40.00,10,6,31,0.00
2013-10-1,62,53,42,39,34,28,71,52,27,0.00,40.00,7,3,13,0.00
2013-10-2,59,48,37,34,23,14,63,42,18,0.00,40.00,10,4,21,0.00
2013-10-3,47,40,32,22,17,8,63,40,22,0.00,40.00,10,-7,29,0.00
2013-10-4,50,41,32,20,15,10,58,37,22,0.00,40.00,11,6,27,0.00
2013-10-5,61,48,37,27,14,10,38,26,14,0.00,40.00,8,5,22,0.00
2013-10-6,67,46,32,39,21,14,53,39,16,0.00,40.00,6,2,10,0.00
2013-10-7,64,49,36,24,19,10,59,34,13,0.00,40.00,9,3,16,0.00
2013-10-8,59,48,34,24,17,10,44,30,19,0.00,40.00,7,3,18,0.00
2013-10-9,45,39,34,34,30,20,90,71,39,0.00,40.00,8,3,20,0.00
2013-10-10,54,42,30,34,29,25,93,65,33,0.00,40.00,9,3,17,0.00
2013-10-11,56,42,29,35,29,21,94,64,27,0.00,40.00,9,3,17,0.00
2013-10-12,56,42,30,31,25,-100,84,56,23,0.00,40.00,9,4,23,0.00
2013-10-13,48,40,33,33,30,27,86,68,47,0.00,40.00,9,4,22,0.00
2013-10-14,52,44,30,30,26,21,81,50,29,0.00,40.00,8,5,22,0.00
2013-10-15,50,44,37,25,20,14,56,39,28,0.00,40.00,10,6,31,0.00
2013-10-16,60,42,26,32,22,16,66,47,20,0.00,40.00,10,2,15,0.00
2013-10-17,62,46,32,34,23,12,89,50,14,0.00,40.00,5,1,15,0.00
2013-10-18,61,50,37,30,23,17,49,35,20,0.00,40.00,5,2,13,0.00
2013-10-19,65,46,32,34,23,-100,70,45,18,0.00,40.00,3,1,7,0.00
2013-10-20,67,47,32,34,22,14,64,42,13,0.00,40.00,4,1,13,0.00
2013-10-21,63,49,37,29,19,14,48,33,15,0.00,40.00,7,1,92,0.00
2013-10-22,65,47,34,33,22,17,56,39,22,0.00,40.00,4,-10,19,0.00
2013-10-23,66,45,34,33,20,14,55,39,13,0.00,40.00,3,1,11,0.00
2013-10-24,63,46,33,35,21,16,51,38,24,0.00,40.00,4,1,8,0.00
2013-10-25,48,37,32,21,18,13,59,48,24,0.00,40.00,2,0,4,0.00
2013-10-26,48,39,35,17,11,-100,39,33,26,0.00,40.00,4,1,8,0.00
2013-10-27,50,39,34,30,18,14,72,42,32,0.00,40.00,13,3,29,0.00
2013-10-28,38,32,26,27,22,-100,80,69,56,0.00,40.00,11,6,20,6.00
2013-10-29,40,36,33,27,24,22,65,61,56,0.00,40.00,9,6,18,0.00
2013-10-31,46,36,28,28,24,20,73,64,49,0.00,40.00,2,0,3,0.00
2013-11-1,49,34,27,35,23,18,72,65,55,0.00,40.00,5,2,5,0.00
2013-11-2,40,34,32,25,22,18,73,62,45,0.00,40.00,5,3,7,0.00
2013-11-3,48,41,33,28,22,7,61,48,35,0.00,40.00,11,7,22,0.00
2013-11-4,45,34,25,14,10,5,47,36,28,0.00,40.00,11,6,22,0.00
2013-11-5,43,28,20,15,9,5,52,45,27,0.00,40.00,7,2,13,0.00
2013-11-6,55,35,27,35,21,14,63,56,46,0.00,40.00,5,2,6,0.00
2013-11-7,44,41,39,30,26,22,65,56,47,0.00,40.00,4,2,6,0.00
2013-11-8,54,43,37,27,22,20,49,43,35,0.00,40.00,4,3,6,0.00
2013-11-9,54,37,31,29,19,-100,59,50,38,0.00,40.00,5,2,7,0.00
2013-11-10,53,38,28,23,14,5,50,39,24,0.00,40.00,6,2,7,0.00
2013-11-11,55,43,33,30,13,3,37,29,22,0.00,40.00,6,2,8,0.00
2013-11-12,55,47,42,29,24,17,46,41,23,0.00,40.00,5,3,6,0.00
2013-11-13,44,36,33,30,22,20,65,57,47,0.00,40.00,3,2,4,0.00
2013-11-15,47,38,29,27,24,17,68,58,46,0.00,40.00,12,6,23,0.00
2013-11-16,51,41,30,31,22,-100,63,49,34,0.00,40.00,10,6,21,0.00
2013-11-17,47,30,23,26,18,16,76,62,43,0.00,40.00,4,2,7,0.00
2013-11-18,52,35,26,34,23,17,73,63,46,0.00,40.00,8,3,15,0.00
2013-11-19,53,46,41,38,33,29,68,61,52,0.00,40.00,13,5,24,0.00
2013-11-20,49,41,33,37,32,27,79,71,59,0.00,40.00,7,3,16,0.00
2013-11-21,36,30,21,30,22,11,79,72,66,0.00,40.00,7,2,14,0.00
2013-11-22,30,28,24,5,3,-5,36,32,26,0.00,40.00,13,9,29,0.00
2013-11-23,41,33,26,6,0,-100,34,26,19,0.00,40.00,11,6,25,0.00
2013-11-24,51,34,24,12,6,3,42,30,19,0.00,40.00,8,4,15,0.00
2013-11-25,37,26,21,16,10,7,55,49,40,0.00,40.00,3,0,12,0.00
2013-11-26,44,32,24,27,17,12,60,54,48,0.00,40.00,4,1,5,0.00
2013-11-27,38,32,29,23,19,17,61,58,55,0.00,40.00,4,1,5,0.00
2013-11-28,53,38,29,28,23,18,64,54,35,0.00,40.00,7,2,16,0.00
2013-11-29,49,29,24,25,19,15,72,65,39,0.00,40.00,3,1,7,0.00
2013-11-30,49,25,21,29,13,-100,76,67,38,0.00,40.00,6,1,8,0.00
2013-12-1,53,30,22,30,18,12,73,60,41,0.00,40.00,6,2,7,0.00
2013-12-2,48,34,29,32,18,12,66,54,29,0.00,40.00,7,2,10,0.00
2013-12-6,25,23,22,-5,-5,-6,29,28,26,0.00,40.00,11,9,17,0.00
2013-12-7,-200,0,200,-100,-100,-100,0,0,100,0.00,40.00,3,3,5,0.00
2013-12-8,3,0,-7,-11,-13,-16,63,56,52,0.00,40.00,3,3,7,0.00
2013-12-9,36,9,-2,8,-14,-100,51,40,22,0.00,40.00,11,6,19,0.00
2013-12-10,44,30,2,23,13,-5,74,52,30,0.00,40.00,6,2,15,0.00
2013-12-11,45,33,16,10,6,2,57,33,24,0.00,40.00,8,6,20,0.00
2013-12-12,41,24,9,24,10,1,75,57,30,0.00,40.00,4,2,7,0.00
2013-12-13,48,31,12,18,9,-3,53,40,22,0.00,40.00,12,5,25,0.00
2013-12-14,45,27,16,23,9,-100,64,49,41,0.00,40.00,6,2,11,0.00
2013-12-15,45,26,16,28,14,5,64,60,50,0.00,40.00,3,2,5,0.00
2013-12-16,44,26,19,29,15,10,68,61,54,0.00,40.00,5,2,6,0.00
2013-12-17,44,36,31,32,24,18,64,59,56,0.00,40.00,4,3,5,0.00
2013-12-18,57,34,29,37,20,16,67,57,40,0.00,40.00,4,2,9,0.00
2013-12-19,42,29,18,21,16,5,78,61,40,0.00,40.00,10,5,20,0.00
2013-12-20,45,22,9,20,5,-7,65,50,11,0.00,40.00,10,4,18,0.00
2013-12-21,52,36,26,29,21,-100,71,57,35,0.00,40.00,9,4,15,0.00
2013-12-22,49,28,22,30,18,12,72,64,48,0.00,40.00,6,1,14,0.00
2013-12-23,44,29,21,31,20,15,77,70,59,0.00,40.00,4,1,5,0.00
2013-12-24,50,28,20,33,17,13,74,65,48,0.00,40.00,4,1,6,0.00
2013-12-25,49,27,19,27,16,10,75,65,40,0.00,40.00,5,1,7,0.00
2013-12-26,44,31,18,24,13,6,58,48,40,0.00,40.00,4,1,6,0.00
2013-12-27,49,31,17,35,15,3,63,52,38,0.00,40.00,4,2,6,0.00
2013-12-28,51,34,17,16,8,-100,52,37,18,0.00,40.00,11,6,21,0.00
2013-12-29,52,30,26,20,12,7,51,46,28,0.00,40.00,7,4,13,0.00
2013-12-30,49,35,19,33,17,8,62,50,39,0.00,40.00,4,2,5,0.00
2013-12-31,46,35,28,25,13,9,48,41,35,0.00,40.00,5,2,6,0.00
2014-1-1,50,30,22,22,12,7,56,48,33,0.00,40.00,4,1,5,0.00
2014-1-2,47,30,22,30,18,13,74,63,51,0.00,40.00,4,2,6,0.00